Regional Weather Roundup
Issued by NWS Grand Forks, ND

Home | Current Version | Previous Version | Graphics & Text | Print | Product List | Glossary On
Versions: 1 2 3 4 5 6 7 8 9 10 11 12 13 14 15 16 17 18 19 20 21 22 23 24 25 26 27 28 29 30 31 32 33 34 35 36 37 38 39 40 41 42 43 44 45 46 47 48 49 50
692
ASUS43 KFGF 300410
RWRFGF
PRAIRIE TO PINES  WEATHER ROUNDUP
NATIONAL WEATHER SERVICE EASTERN NORTH DAKOTA/GRAND FORKS ND
1100 PM CDT FRI APR 29 2016

 **SATELLITE DATA USED TO AUGMENT SKY COVER AT AUTOMATED STATIONS**
 *****  WEATHER ACROSS EASTERN NORTH DAKOTA  *****

CITY           SKY/WX    TMP DP  RH WIND       PRES   REMARKS
GRAND FORKS    PTCLDY    51  32  48 NE13      30.18R
GRAND FRKS AFB CLEAR     47  29  49 E9        30.18R
DEVILS LAKE    CLEAR     45  32  60 E8        30.19R
FARGO          CLEAR     53  32  44 NE15      30.11F
WAHPETON ARPT  CLEAR     46  36  66 CALM      30.11S
$$

 ***** WEATHER ACROSS CENTRAL AND WESTERN NORTH DAKOTA  *****

CITY           SKY/WX    TMP DP  RH WIND       PRES   REMARKS
BISMARCK       CLEAR     46  35  65 NE7       30.12S
MINOT          CLEAR     48  27  44 E7        30.17R
JAMESTOWN      CLEAR     47  33  58 NE9       30.12R
MINOT AFB      CLEAR     46  28  49 E9        30.17R
GARRISON         N/A     48  29  47 E12       30.15R
WILLISTON      PTCLDY    49  26  41 E12       30.14R
DICKINSON      MOCLDY    41  31  67 E9        30.08S
HETTINGER      CLOUDY    43  34  70 S5        30.10R
$$

 *****  OTHER AIRPORT OBSERVATIONS IN OUR AREA  *****

CITY           SKY/WX    TMP DP  RH WIND       PRES   REMARKS
WALHALLA       FAIR      48  28  46 E8        30.22R
GRAFTON AIRPOR FAIR      45  32  61 E9        30.21R
VALLEY CITY AR FAIR      48  32  53 NE13      30.14S
CANDO          FAIR      48  28  46 E12       30.21S
CAVALIER APRT  FAIR      46  34  61 N7        30.21R
GWINNER        FAIR      46  41  81 SW3       30.11S
SHEYENNE NWR     N/A     44  34  67 N2        29.95S
ROLLA          CLOUDY    43  27  52 NE12      30.22R
 ***** THE ABOVE OBSERVATIONS ARE NON NWS ARE NOT QUALITY
       CONTROLLED AND MAY MIS-REPORT RAIN FOR SNOW...
$$

  *****  WEATHER ACROSS NORTHERN MINNESOTA  *****

CITY           SKY/WX    TMP DP  RH WIND       PRES   REMARKS
FLAG ISLAND    PTCLDY    48  28  46 NE6       30.23S
WARROAD        CLEAR     46  32  57 NE8       30.23S
ROSEAU         CLEAR     45  34  65 NE5       30.22S
HALLOCK        CLEAR     48  30  49 E9        30.20S
THF RVR FALLS  CLEAR     48  30  49 NE8       30.20S
BAUDETTE       CLEAR     45  29  53 E9        30.23S
WASKISH        CLEAR     45  34  65 NE7       30.21S
CROOKSTON      CLEAR     48  34  57 E9        30.19R
STEPHEN NDAWN    N/A     45  30  57 E8          N/A
GREENBUSH NDAW   N/A     45  34  65 E6          N/A
$$
  *****  WEATHER ACROSS CENTRAL AND WEST MINNESOTA  *****

CITY           SKY/WX    TMP DP  RH WIND       PRES   REMARKS
FOSSTON        CLEAR     46  30  53 E10       30.18S
BEMIDJI        CLEAR     46  31  55 NE9       30.18R
PARK RAPIDS    CLEAR     51  30  44 NE7       30.14S
ELBOW LAKE     FAIR      47  42  82 CALM      30.11F
WADENA         CLEAR     48  32  53 NE5       30.12F
DETROIT LAKES  CLEAR     50  32  50 E5        30.14S
MOORHEAD       CLEAR     52  34  50 NE12      30.12F
FERGUS FALLS   CLEAR     52  36  54 E5        30.10R
MORRIS MN      CLEAR     46  37  71 E5        30.10R
STAPLES        CLEAR     46  28  49 CALM      30.13S
$$
  *****  WEATHER ELSEWHERE ACROSS MINNESOTA  *****

CITY           SKY/WX    TMP DP  RH WIND       PRES   REMARKS
DULUTH         CLEAR     38  28  67 NE8       30.21S
INTRNTL FALLS  CLEAR     45  31  58 E7        30.24S
ELY            CLEAR     39  30  70 CALM      30.24S
CLOQUET        CLEAR     39  28  65 NE7       30.20F
WHEATON        CLOUDY    48  39  71 CALM      30.12F
BRAINERD       CLEAR     47  31  53 E7        30.15S
HIBBING        CLEAR     36  29  75 E5        30.22R
ALEXANDRIA     CLEAR     45  32  60 E6        30.12S
SAINT CLOUD    CLEAR     50  32  50 NE7       30.12S
MINNEAPOLIS    CLOUDY    51  39  63 E3        30.11S
$$

  *****  WEATHER ACROSS SOUTH DAKOTA  *****

CITY           SKY/WX    TMP DP  RH WIND       PRES   REMARKS
SIOUX FALLS    MOCLDY    42  38  85 E6        30.06R
BROOKINGS      CLOUDY    44  39  82 E6        30.06S
WATERTOWN      CLOUDY    41  36  82 NE6       30.07S
HURON          CLOUDY    45  41  86 CALM      30.08R
SISSETON         N/A     44  39  82 CALM      30.09S
ABERDEEN       CLOUDY    46  39  76 CALM      30.10S
MITCHELL       CLOUDY    47  42  83 NE7       30.07S
PIERRE         MOCLDY    39  36  89 NE6       30.06F
MOBRIDGE       CLOUDY    47  40  76 SE7       30.07R
RAPID CITY     CLOUDY    41  36  82 N5        30.05S
$$

  *****  SOME WEATHER IN NEARBY STATES *****

CITY           SKY/WX    TMP DP  RH WIND       PRES   REMARKS
GLASGOW MT     MOCLDY    45  36  70 E8        30.10R
GREAT FALLS MT CLOUDY    44  34  67 E9        29.99R
CHEYENNE WY    LGT SNOW  31  29  92 N8        29.90S FOG     WCI  23
SCOTTSBLUFF NE LGT SNOW  33  32  96 NW5       29.95S FOG
OMAHA NE       LGT RAIN  47  42  83 NE15G21   29.94F
DES MOINES IA  CLOUDY    49  41  74 E15G23    30.01S
DAVENPORT IA   CLOUDY    47  41  80 E13       30.07F
CHICAGO IL     CLOUDY    43  37  79 E9        30.12F
EAU CLAIRE WI  CLOUDY    43  38  82 N3        30.11F
LA CROSSE WI   CLOUDY    47  40  76 SE3       30.10F
$$

  *****  SOME NATIONAL WEATHER *****

CITY           SKY/WX    TMP DP  RH WIND       PRES   REMARKS
LA GUARDIA NY  CLOUDY    48  33  56 E9        30.15R
RALEIGH NC     PTCLDY    63  58  83 SE5       30.01R
ATLANTA GA     CLOUDY    72  56  57 NW6       30.01S
NEW ORLEANS LA CLOUDY    77  72  84 SE10      29.87R
OKLAHOMA CITY  CLOUDY    56  56 100 NW13      29.69S FOG
ALBUQUERQUE NM CLOUDY    49  38  65 S10       29.89R
SALT LAKE CITY MOCLDY    49  38  65 N10       29.85R
LOS ANGELES CA PTCLDY    57  51  80 SW3       29.92S
BOISE ID       PTCLDY    52  38  58 NW14      29.92R
SEATTLE WA     PTCLDY    54  42  64 CALM      30.19R
$$

*** WEATHER ACROSS MANITOBA...SASKATCHEWAN AND ONTARIO ***
                ***ONTARIO***

CITY           SKY/WX    TMP DP  RH WIND       PRES   REMARKS
GERALDTON      CLOUDY    37  34  87 NE5       30.29R
THUNDER BAY    CLOUDY    45  30  57 NE5       30.27S
SIOUX LOOKOUT  CLEAR     37  27  65 NE3       30.28S
TORONTO        CLEAR     41  27  56 NW8       30.18R
BIG TROUT LK   MOCLDY    32  27  80 NE3       30.36S
PICKLE LAKE    NOT AVBL
DRYDEN         CLEAR     41  28  60 NE5       30.27R
KENORA         CLEAR     45  28  53 E5        30.27R
$$
                *** MANITOBA***

CITY           SKY/WX    TMP DP  RH WIND       PRES   REMARKS
BRANDON        PTCLDY    41  25  52 NE9       30.24S
DAUPHIN        CLEAR     43  25  49 CALM      30.29R
ISLAND LAKE    NOT AVBL
PILOT MOUND      N/A     46  25  42 NE12        N/A
THE PAS        PTCLDY    45  25  45 SE9       30.30R
THOMPSON       MOCLDY    50  21  32 SE2       30.27R
WINNIPEG       PTCLDY    45  27  49 NE13      30.25F
LYNN LAKE      PTCLDY    46  27  46 SW5       30.23R
CHURCHILL      PTCLDY    23  19  86 E9        30.46S WCI  13
$$
                ***SASKATCHEWAN***

CITY           SKY/WX    TMP DP  RH WIND       PRES   REMARKS
ESTEVAN        PTCLDY    43  23  45 E10       30.18R
KINDERSLEY     MOCLDY    52  25  35 SE14      30.10R
LLOYDMINSTER   PTCLDY    48  21  34 SE9       30.10R
PRINCE ALBERT  PTCLDY    48  27  43 SE6       30.20R
REGINA         PTCLDY    48  18  29 E13       30.18R
YORKTON        CLEAR     43  28  56 SE8       30.24R
N. BATTLEFORD  CLEAR     48  19  32 SE13      30.15R
LA RONGE       PTCLDY    48  25  40 S5        30.19R
SASKATOON      CLEAR     52  23  32 SE12      30.18R
SWIFT CURRENT  CLEAR     43  25  49 SE9       30.11R
$$
NOTE: THESE ARE AUTOMATED STATIONS WITH LIMITED QUALITY CONTROL
      "FAIR" INDICATES FEW OR NO CLOUDS BELOW 12,000 FEET WITH NO
      SIGNIFICANT WEATHER AND/OR OBSTRUCTIONS TO VISIBILITY.
      SKY/WX - SKY CONDITION AND SIGNIFICANT WEATHER.
      TMP - AIR TEMPERATURE.    DP   - DEWPOINT TEMPERATURE.
      RH  - RELATIVE HUMIDITY.  PRES - PRESSURE.
      HX  - HEAT INDEX.         WCI  - WIND CHILL INDEX.
$




USA.gov is the U.S. government's official web portal to all federal, state and local government web resources and services.